This is the latest recevied weather packets stored in our database for station/object K5KHP. If no packets are shown the sender has not sent any weather packets the latest 10 day(s).
| Time | Temp. | Humidity | Pressure | Rain* | Wind** | Luminosity | Snow |
|---|---|---|---|---|---|---|---|
| 1777583864 | 20.56° C | 67% | 1011 hPa | 0 mm | - | 615 W/m² | - |
| 1777583560 | 20° C | 68% | 1010.9 hPa | 0 mm | - | 613 W/m² | - |
| 1777583259 | 20.56° C | 69% | 1011.2 hPa | 0 mm | - | 638 W/m² | - |
| 1777582958 | 20° C | 70% | 1011 hPa | 0 mm | - | 652 W/m² | - |
| 1777582657 | 20.56° C | 69% | 1011 hPa | 0 mm | - | 638 W/m² | - |
| 1777582352 | 20.56° C | 70% | 1010.9 hPa | 0 mm | - | 592 W/m² | - |
| 1777582050 | 20.56° C | 68% | 1011.2 hPa | 0 mm | - | 594 W/m² | - |
| 1777581745 | 20.56° C | 68% | 1011.2 hPa | 0 mm | - | 619 W/m² | - |
| 1777581443 | 20.56° C | 68% | 1011.3 hPa | 0 mm | - | 635 W/m² | - |
| 1777581139 | 20.56° C | 68% | 1011 hPa | 0 mm | - | 652 W/m² | - |
| 1777580834 | 20.56° C | 68% | 1011.2 hPa | 0 mm | - | 651 W/m² | - |
| 1777580529 | 20.56° C | 68% | 1011.1 hPa | 0 mm | - | 662 W/m² | - |
| 1777580224 | 20.56° C | 67% | 1011 hPa | 0 mm | - | 645 W/m² | - |
| 1777579922 | 20° C | 70% | 1011.2 hPa | 0 mm | - | 643 W/m² | - |
| 1777579617 | 20° C | 69% | 1011.3 hPa | 0 mm | - | 659 W/m² | - |
| 1777579316 | 20° C | 69% | 1011.2 hPa | 0 mm | - | 663 W/m² | - |
| 1777579012 | 20.56° C | 69% | 1011.2 hPa | 0 mm | - | 650 W/m² | - |
| 1777578707 | 21.11° C | 68% | 1011.2 hPa | 0 mm | - | 632 W/m² | - |
| 1777578406 | 20.56° C | 68% | 1011.3 hPa | 0 mm | - | 599 W/m² | - |
| 1777578102 | 20.56° C | 68% | 1011.3 hPa | 0 mm | - | 590 W/m² | - |
| 1777577798 | 20° C | 71% | 1011.4 hPa | 0 mm | - | 600 W/m² | - |
| 1777577494 | 20° C | 69% | 1011.4 hPa | 0 mm | - | 634 W/m² | - |
| 1777577191 | 20.56° C | 70% | 1011.4 hPa | 0 mm | - | 645 W/m² | - |
| 1777576887 | 20.56° C | 70% | 1011.5 hPa | 0 mm | - | 613 W/m² | - |
| 1777576581 | 20.56° C | 70% | 1011.7 hPa | 0 mm | - | 606 W/m² | - |
* Rain latest hour (hover to see other rain measurements)
** Current wind speed in m/s (hover to see current wind gust speed)